Arden, NC

5:33 PM EST on December 08, 2016 (GMT -0500)
Asheville Regional

Weather History for KAVL - June, 2007

Change the Weather History Date:

Thursday, June 28, 2007

  Actual Average Record
Temperature  
Mean Temperature 75 °F 73 °F  
Max Temperature 86 °F 83 °F 98 °F (1952)
Min Temperature 63 °F 62 °F 48 °F (1987)
Degree Days  
Heating Degree Days 0 0  
Month to date heating degree days 0 11  
Since 1 June heating degree days 11  
Since 1 July heating degree days 4022 4192  
Cooling Degree Days 10 8  
Month to date cooling degree days 174 163  
Year to date cooling degree days 217 221  
Since 1 June cooling degree days 163  
Growing Degree Days 24 (Base 50)    
Moisture  
Dew Point 64 °F    
Average Humidity 69    
Maximum Humidity 93    
Minimum Humidity 45    
Precipitation  
Precipitation 0.04 in 0.16 in 3.50 in (1878)
Month to date precipitation 2.91 4.33  
Year to date precipitation 14.73 22.58  
Snow  
Snow 0.00 in 0.00 in 0.00 in ()
Month to date snowfall 0.0 0.0  
Since 1 June snowfall 0.0  
Since 1 July snowfall 3.2 9.9  
Snow Depth -    
Sea Level Pressure  
Sea Level Pressure 30.16 in    
Wind  
Wind Speed 2 mph (West)    
Max Wind Speed 10 mph    
Max Gust Speed 14 mph    
Visibility 4 miles    
Events Fog , Rain    
T = Trace of Precipitation, MM = Missing Value Source: NWS Daily Summary

Daily Weather History Graph

Daily Weather History Graph

Search for Another Location

Airport or City:

Trip Planner

Search our weather history database for the weather conditions in past years. The results will help you decide how hot, cold, wet, or windy it might be!

Date:

Astronomy

Jun. 28, 2007 Rise Set
Actual Time 6:17 AM EDT 8:49 PM EDT
Civil Twilight 5:47 AM EDT 9:19 PM EDT
Nautical Twilight 5:10 AM EDT 9:56 PM EDT
Astronomical Twilight 4:29 AM EDT 10:37 PM EDT
Moon 7:38 PM EDT (6/28) 4:10 AM EDT (6/28)
Length of Visible Light 15h 31m
Length of Day
14h 32m
Waxing Gibbous, 96% of the Moon is Illuminated
Jun 28
Waxing Gibbous
Jun 30
Full
Jul 7
Last Quarter
Jul 14
New
Jul 22
First Quarter

Hourly Weather History & Observations

Time (EDT) Temp. Heat Index Dew Point Humidity Pressure Visibility Wind Dir Wind Speed Gust Speed Precip Events Conditions
12:54 AM 69.1 °F - 64.9 °F 87% 30.15 in 6.0 mi Calm Calm - N/A   Clear
1:54 AM 68.0 °F - 64.9 °F 90% 30.15 in 3.0 mi Calm Calm - N/A   Clear
2:54 AM 66.9 °F - 64.0 °F 90% 30.14 in 4.0 mi Calm Calm - N/A   Partly Cloudy
3:15 AM 66.2 °F - 64.4 °F 94% 30.22 in 2.0 mi Calm Calm - N/A   Scattered Clouds
3:18 AM 66.2 °F - 64.4 °F 94% 30.22 in 1.2 mi Calm Calm - N/A   Scattered Clouds
3:23 AM 66.2 °F - 64.4 °F 94% 30.22 in 0.2 mi Calm Calm - N/A Fog Fog
3:32 AM 66.2 °F - 64.4 °F 94% 30.21 in 0.5 mi Calm Calm - N/A Fog Fog
3:36 AM 66.2 °F - 64.4 °F 94% 30.21 in 1.5 mi Calm Calm - N/A   Scattered Clouds
3:41 AM 64.4 °F - 64.4 °F 100% 30.21 in 3.0 mi Calm Calm - N/A   Scattered Clouds
3:45 AM 64.4 °F - 62.6 °F 94% 30.21 in 1.8 mi SSW 3.5 mph - N/A   Scattered Clouds
3:49 AM 64.4 °F - 62.6 °F 94% 30.21 in 0.8 mi Calm Calm - N/A   Scattered Clouds
3:54 AM 64.9 °F - 63.0 °F 93% 30.13 in 0.5 mi Calm Calm - N/A Fog Fog
4:02 AM 64.4 °F - 62.6 °F 94% 30.21 in 1.2 mi Calm Calm - N/A   Scattered Clouds
4:04 AM 64.4 °F - 62.6 °F 94% 30.21 in 2.0 mi Calm Calm - N/A   Partly Cloudy
4:21 AM 64.4 °F - 62.6 °F 94% 30.20 in 3.0 mi Calm Calm - N/A   Partly Cloudy
4:54 AM 64.9 °F - 63.0 °F 93% 30.12 in 4.0 mi Calm Calm - N/A   Clear
5:22 AM 64.4 °F - 62.6 °F 94% 30.20 in 2.5 mi Calm Calm - N/A   Partly Cloudy
5:29 AM 64.4 °F - 62.6 °F 94% 30.20 in 1.8 mi Calm Calm - N/A   Mostly Cloudy
5:42 AM 64.4 °F - 62.6 °F 94% 30.20 in 1.0 mi Calm Calm - N/A   Mostly Cloudy
5:46 AM 64.4 °F - 62.6 °F 94% 30.20 in 0.2 mi Calm Calm - N/A Fog Fog
5:54 AM 63.0 °F - 61.0 °F 93% 30.13 in 0.2 mi Calm Calm - N/A Fog Fog
5:58 AM 62.6 °F - 60.8 °F 94% 30.20 in 1.2 mi Calm Calm - N/A   Mostly Cloudy
6:00 AM 62.6 °F - 60.8 °F 94% 30.20 in 2.5 mi Calm Calm - N/A   Mostly Cloudy
6:09 AM 62.6 °F - 62.6 °F 100% 30.20 in 3.0 mi Calm Calm - N/A   Scattered Clouds
6:18 AM 62.6 °F - 60.8 °F 94% 30.20 in 2.0 mi Calm Calm - N/A   Mostly Cloudy
6:20 AM 62.6 °F - 62.6 °F 100% 30.20 in 1.2 mi Calm Calm - N/A Fog Fog
6:27 AM 64.4 °F - 62.6 °F 94% 30.21 in 0.5 mi Calm Calm - N/A Fog Fog
6:54 AM 64.0 °F - 63.0 °F 96% 30.13 in 0.2 mi Calm Calm - N/A Fog Fog
7:21 AM 64.4 °F - 62.6 °F 94% 30.22 in 0.2 mi Calm Calm - N/A Fog Fog
7:54 AM 64.9 °F - 63.0 °F 93% 30.15 in 0.2 mi Calm Calm - N/A Fog Fog
8:13 AM 64.4 °F - 64.4 °F 100% 30.22 in 0.8 mi Calm Calm - N/A   Overcast
8:25 AM 64.4 °F - 64.4 °F 100% 30.22 in 1.0 mi Calm Calm - N/A   Overcast
8:54 AM 66.0 °F - 64.9 °F 96% 30.14 in 1.0 mi Calm Calm - N/A   Mist
9:01 AM 66.2 °F - 64.4 °F 94% 30.22 in 1.5 mi Calm Calm - N/A   Partly Cloudy
9:54 AM 73.9 °F - 64.9 °F 73% 30.14 in 7.0 mi Calm Calm - N/A   Clear
10:54 AM 78.1 °F - 64.9 °F 64% 30.13 in 8.0 mi Calm Calm - N/A   Clear
11:54 AM 82.9 °F 83.7 °F 62.1 °F 49% 30.12 in 10.0 mi North 6.9 mph - N/A   Clear
12:54 PM 86.0 °F 86.8 °F 63.0 °F 46% 30.10 in 9.0 mi Variable 3.5 mph - N/A   Partly Cloudy
1:46 PM 78.8 °F - 66.2 °F 65% 30.17 in 2.0 mi NW 5.8 mph - 0.03 in Rain Rain
1:50 PM 78.8 °F - 66.2 °F 65% 30.17 in 3.0 mi West 8.1 mph - 0.03 in Rain Light Rain
1:54 PM 75.0 °F - 66.0 °F 73% 30.09 in 4.0 mi West 9.2 mph - 0.04 in Rain Rain
2:12 PM 73.4 °F - 64.4 °F 73% 30.16 in 9.0 mi WSW 6.9 mph - 0.00 in   Scattered Clouds
2:54 PM 72.0 °F - 64.0 °F 76% 30.10 in 10.0 mi SSW 10.4 mph - 0.00 in Rain Light Rain
3:54 PM 73.9 °F - 63.0 °F 68% 30.10 in 10.0 mi Calm Calm - 0.00 in   Partly Cloudy
4:54 PM 75.9 °F - 64.9 °F 69% 30.07 in 10.0 mi Variable 4.6 mph - N/A   Clear
5:54 PM 75.9 °F - 66.0 °F 71% 30.06 in 10.0 mi West 3.5 mph - N/A   Clear
6:54 PM 77.0 °F - 64.9 °F 66% 30.06 in 10.0 mi North 6.9 mph - N/A   Clear
7:54 PM 75.9 °F - 64.9 °F 69% 30.08 in 9.0 mi NE 3.5 mph - N/A   Scattered Clouds
8:54 PM 73.9 °F - 64.0 °F 71% 30.09 in 10.0 mi Calm Calm - N/A   Clear
9:54 PM 72.0 °F - 64.0 °F 76% 30.10 in 10.0 mi Calm Calm - N/A   Clear
10:54 PM 71.1 °F - 64.0 °F 78% 30.10 in 10.0 mi Calm Calm - N/A   Clear
11:54 PM 70.0 °F - 63.0 °F 78% 30.09 in 9.0 mi Calm Calm - N/A   Clear